View from above orbital plane
|
View from above satellite
|
Ground track
|
The orbit data is extracted from the following two-line orbital elements,
1 23657U 95046A 21055.85602552 .00000285 00000-0 29606-4 0 9995
2 23657 82.5242 73.4389 0020605 298.4232 61.4907 14.86250514377465
Epoch (UTC): | 24 February 2021 20:32:40 |
Eccentricity: | 0.0020605 |
inclination: | 82.5242° |
perigee height: | 595 km |
apogee height: | 624 km |
right ascension of ascending node: | 73.4389° |
argument of perigee: | 298.4232° |
revolutions per day: | 14.86250514 |
mean anomaly at epoch: | 61.4907° |
orbit number at epoch: | 37746 |
The dashed part of the orbit path shows where the satellite is in the earth's shadow,
|
|